Regional Weather Roundup
Issued by NWS New Orleans/Baton Rouge, LA

Home | Current Version | Previous Version | Text Only | Print | Product List | Glossary On
Versions: 1 2 3 4 5 6 7 8 9 10 11 12 13 14 15 16 17 18 19 20 21 22 23 24 25 26 27 28 29 30 31 32 33 34 35 36 37 38 39 40 41 42 43 44 45 46 47 48 49 50
000
ASUS44 KLIX 291014
RWRLIX
NEW ORLEANS REGIONAL WEATHER ROUNDUP
NATIONAL WEATHER SERVICE NEW ORLEANS LA
500 AM CDT SAT APR 29 2017

NOTE: "FAIR" INDICATES FEW OR NO CLOUDS BELOW 12,000 FEET WITH NO
      SIGNIFICANT WEATHER AND/OR OBSTRUCTIONS TO VISIBILITY.
      SKY/WX - SKY CONDITION AND SIGNIFICANT WEATHER.
      TMP - AIR TEMPERATURE.     DP    - DEWPOINT TEMPERATURE.
      RH  - RELATIVE HUMIDITY.   PRES  - PRESSURE.
      HI  - HEAT INDEX.          WCI   - WIND CHILL INDEX.

*  THESE STATIONS ARE NOT NWS OR FAA STATIONS AND ARE NOT UNDER
   NWS QUALITY CONTROL.

LAZ038-040-048-061>063-065>067-069-291100-
SOUTHEAST LOUISIANA

CITY           SKY/WX    TMP DP  RH WIND       PRES   REMARKS
N.O. INTL ARPT MOCLDY    78  74  87 SE16G24   29.90S
N.O. LAKEFRONT CLOUDY    78  74  87 SE14      29.91S
N.O. DOWNTOWN*   N/A     77  74  90 VRB3        N/A
RESERVE*       NOT AVBL
SLIDELL        CLOUDY    77  74  90 SE10      29.92R
BATON ROUGE    MOCLDY    77  72  84 SE13G22   29.86F
BOOTHVILLE     CLEAR     77  75  93 SE14G22   29.91S
BELLE CHASSE   CLOUDY   N/A N/A N/A SE5       29.91S
BOGALUSA*      NOT AVBL
GALLIANO*      CLOUDY    78  72  83 SE13      29.90S
NEW ROADS*       N/A     76  72  86 SE16      29.84F
GONZALES*      CLOUDY    78  73  83 SE10G20   29.87S
HAMMOND*       CLOUDY    77  72  83 SE13G18   29.90S
HOUMA*         CLOUDY    78  74  87 SE16G22   29.89S
PORT FOURCHON* CLOUDY    77  75  94 SE17G28   29.89R FOG

$$

MSZ070-080>082-291100-
SOUTHERN MISSISSIPPI

CITY           SKY/WX    TMP DP  RH WIND       PRES   REMARKS
MCCOMB         CLOUDY    76  71  85 SE14G23   29.89S
GULFPORT       CLOUDY    77  75  93 SE12      29.94S
BILOXI         CLOUDY    77  74  90 SE9       29.94F
PASCAGOULA     CLOUDY    76  72  87 SE12      29.96S

$$

COASTAL OBSERVATIONS
LAKE AND NEARSHORE STATIONS

STATION/POSITION TIME  TEMP    WIND        PRES    WAVE
                       AIR SEA DIR/SP/G            HT/PER
                 (UTC) (F)     (DEG/KT/KT) (MB)    (FT/S)
PASCAGOULA       0948   76     120/  9/ 16 1014.1
WAVELAND YACHT   0948   77 77  140/ 12/ 16 1013.4
GRAND ISLE       0948   77 78  150/ 11/ 20 1012.1
SOUTHWEST PASS   0948          130/ 18/ 21   N/A
NEW CANAL        0948   77 76  140/  5/ 10 1012.7
SHELL BEACH      0948   77 78  140/ 13/ 19 1013.1

OFFSHORE STATIONS

STATION/POSITION TIME  TEMP    WIND        PRES    WAVE
                       AIR SEA DIR/SP/G            HT/PER
                 (UTC) (F)     (DEG/KT/KT) (MB)    (FT/S)
64 S DAUPHIN ISL 0950   76 76  120/ 14/ 16 1014.0    5/ 6

$$




USA.gov is the U.S. government's official web portal to all federal, state and local government web resources and services.